Time,TemperatureF,DewpointF,PressureIn,WindDirection,WindDirectionDegrees,WindSpeedMPH,WindSpeedGustMPH,Humidity,HourlyPrecipIn,Conditions,Clouds,dailyrainin,SoftwareType,DateUTC
2013-05-04 00:00:00,71.6,40.3,29.77,NNW,338,1.3,2.2,32,0.00,,,-99.99,meteobridge,2013-05-03 21:00:00,
2013-05-04 00:05:00,71.4,40.1,29.77,North,0,1.6,2.0,32,0.00,,,0.00,meteobridge,2013-05-03 21:05:00,
2013-05-04 00:10:00,71.4,40.1,29.77,North,0,1.3,1.6,32,0.00,,,0.00,meteobridge,2013-05-03 21:10:00,
2013-05-04 00:15:00,71.4,40.1,29.77,North,0,0.0,1.6,32,0.00,,,0.00,meteobridge,2013-05-03 21:15:00,
2013-05-04 00:20:00,71.2,39.9,29.77,North,0,0.0,0.0,32,0.00,,,0.00,meteobridge,2013-05-03 21:20:00,
2013-05-04 00:25:00,71.1,39.7,29.77,North,0,0.0,0.9,32,0.00,,,0.00,meteobridge,2013-05-03 21:25:00,
2013-05-04 00:30:00,71.1,39.7,29.77,ENE,68,0.0,0.0,32,0.00,,,0.00,meteobridge,2013-05-03 21:30:00,
2013-05-04 00:36:00,71.1,39.7,29.77,East,90,0.0,1.1,32,0.00,,,0.00,meteobridge,2013-05-03 21:36:00,
2013-05-04 00:41:00,70.9,39.6,29.77,NNE,22,0.0,0.0,32,0.00,,,0.00,meteobridge,2013-05-03 21:41:00,
2013-05-04 00:46:00,70.5,39.2,29.77,NNE,22,2.0,2.2,32,0.00,,,0.00,meteobridge,2013-05-03 21:46:00,
2013-05-04 00:51:00,70.5,39.2,29.77,North,0,0.9,1.3,32,0.00,,,0.00,meteobridge,2013-05-03 21:51:00,
2013-05-04 00:56:00,70.3,39.2,29.77,North,0,1.3,1.3,32,0.00,,,0.00,meteobridge,2013-05-03 21:56:00,
2013-05-04 01:01:00,70.2,39.7,29.77,North,0,0.9,1.6,33,0.00,,,0.00,meteobridge,2013-05-03 22:01:00,
2013-05-04 01:06:00,70.0,39.6,29.77,North,0,0.0,1.3,33,0.00,,,0.00,meteobridge,2013-05-03 22:06:00,
2013-05-04 01:11:00,69.8,39.4,29.77,North,0,0.0,0.0,33,0.00,,,0.00,meteobridge,2013-05-03 22:11:00,
2013-05-04 01:17:00,69.8,39.4,29.77,North,0,0.0,0.0,33,0.00,,,0.00,meteobridge,2013-05-03 22:17:00,
2013-05-04 01:22:00,69.6,39.2,29.77,North,0,0.0,0.0,33,0.00,,,0.00,meteobridge,2013-05-03 22:22:00,
2013-05-04 01:27:00,69.8,39.4,29.77,North,0,0.0,1.3,33,0.00,,,0.00,meteobridge,2013-05-03 22:27:00,
2013-05-04 01:32:00,69.6,39.2,29.77,North,0,0.0,0.0,33,0.00,,,0.00,meteobridge,2013-05-03 22:32:00,
2013-05-04 01:37:00,69.6,39.2,29.77,North,0,1.3,1.6,33,0.00,,,0.00,meteobridge,2013-05-03 22:37:00,
2013-05-04 01:42:00,69.4,39.2,29.77,North,0,1.6,1.6,33,0.00,,,0.00,meteobridge,2013-05-03 22:42:00,
2013-05-04 01:47:00,69.3,39.7,29.77,North,0,1.3,2.0,34,0.00,,,0.00,meteobridge,2013-05-03 22:47:00,
2013-05-04 01:53:00,69.1,39.6,29.77,North,0,1.3,1.3,34,0.00,,,0.00,meteobridge,2013-05-03 22:53:00,
2013-05-04 01:58:00,68.9,39.4,29.77,North,0,1.3,1.6,34,0.00,,,0.00,meteobridge,2013-05-03 22:58:00,
2013-05-04 02:03:00,68.7,39.2,29.77,North,0,1.1,1.3,34,0.00,,,0.00,meteobridge,2013-05-03 23:03:00,
2013-05-04 02:08:00,68.7,39.2,29.77,North,0,0.0,0.0,34,0.00,,,0.00,meteobridge,2013-05-03 23:08:00,
2013-05-04 02:13:00,68.7,39.9,29.77,NNE,22,0.0,0.0,35,0.00,,,0.00,meteobridge,2013-05-03 23:13:00,
2013-05-04 02:18:00,68.7,39.9,29.77,NNE,22,0.9,1.6,35,0.00,,,0.00,meteobridge,2013-05-03 23:18:00,
2013-05-04 02:23:00,68.5,39.9,29.77,NNE,22,0.0,0.0,35,0.00,,,0.00,meteobridge,2013-05-03 23:23:00,
2013-05-04 02:28:00,68.5,39.9,29.77,NNE,22,0.0,0.0,35,0.00,,,0.00,meteobridge,2013-05-03 23:28:00,
2013-05-04 02:33:00,68.4,39.7,29.77,NNE,22,0.0,0.0,35,0.00,,,0.00,meteobridge,2013-05-03 23:33:00,
2013-05-04 02:38:00,68.4,39.7,29.77,NNE,22,0.0,0.0,35,0.00,,,0.00,meteobridge,2013-05-03 23:38:00,
2013-05-04 02:43:00,68.4,39.7,29.77,NNE,22,0.0,0.0,35,0.00,,,0.00,meteobridge,2013-05-03 23:43:00,
2013-05-04 02:48:00,68.4,39.7,29.77,NNE,22,0.0,0.0,35,0.00,,,0.00,meteobridge,2013-05-03 23:48:00,
2013-05-04 02:53:00,68.4,39.7,29.77,NNE,22,1.1,1.3,35,0.00,,,0.00,meteobridge,2013-05-03 23:53:00,
2013-05-04 02:58:00,68.4,39.7,29.77,NNE,22,1.3,2.0,35,0.00,,,0.00,meteobridge,2013-05-03 23:58:00,
2013-05-04 03:03:00,68.2,39.6,29.77,NNE,22,1.1,1.1,35,0.00,,,0.00,meteobridge,2013-05-04 00:03:00,
2013-05-04 03:08:00,68.2,39.6,29.74,NNE,22,0.0,1.1,35,0.00,,,0.00,meteobridge,2013-05-04 00:08:00,
2013-05-04 03:13:00,68.0,39.4,29.74,NNE,22,0.9,1.3,35,0.00,,,0.00,meteobridge,2013-05-04 00:13:00,
2013-05-04 03:18:00,68.0,39.4,29.74,NE,45,2.0,2.0,35,0.00,,,0.00,meteobridge,2013-05-04 00:18:00,
2013-05-04 03:23:00,68.0,39.4,29.74,NE,45,1.1,1.3,35,0.00,,,0.00,meteobridge,2013-05-04 00:23:00,
2013-05-04 03:28:00,67.8,39.2,29.74,NNE,22,0.0,1.1,35,0.00,,,0.00,meteobridge,2013-05-04 00:28:00,
2013-05-04 03:33:00,67.8,39.2,29.74,NNE,22,1.1,1.6,35,0.00,,,0.00,meteobridge,2013-05-04 00:33:00,
2013-05-04 03:38:00,67.8,39.2,29.74,NNE,22,0.0,1.3,35,0.00,,,0.00,meteobridge,2013-05-04 00:38:00,
2013-05-04 03:44:00,67.8,39.2,29.74,NNE,22,0.0,0.0,35,0.00,,,0.00,meteobridge,2013-05-04 00:44:00,
2013-05-04 03:49:00,67.8,39.2,29.74,NNE,22,1.1,1.1,35,0.00,,,0.00,meteobridge,2013-05-04 00:49:00,
2013-05-04 03:54:00,67.8,39.2,29.74,NNE,22,0.0,0.9,35,0.00,,,0.00,meteobridge,2013-05-04 00:54:00,
2013-05-04 03:59:00,67.8,39.2,29.74,NNE,22,0.0,0.0,35,0.00,,,0.00,meteobridge,2013-05-04 00:59:00,
2013-05-04 04:04:00,67.8,39.2,29.74,NNE,22,0.0,0.0,35,0.00,,,0.00,meteobridge,2013-05-04 01:04:00,
2013-05-04 04:09:00,67.6,39.0,29.74,NNE,22,0.0,0.0,35,0.00,,,0.00,meteobridge,2013-05-04 01:09:00,
2013-05-04 04:15:00,67.6,39.0,29.74,NNE,22,0.0,0.0,35,0.00,,,0.00,meteobridge,2013-05-04 01:15:00,
2013-05-04 04:20:00,67.6,39.0,29.74,ENE,68,0.0,0.0,35,0.00,,,0.00,meteobridge,2013-05-04 01:20:00,
2013-05-04 04:25:00,67.6,39.0,29.74,ENE,68,0.0,0.0,35,0.00,,,0.00,meteobridge,2013-05-04 01:25:00,
2013-05-04 04:30:00,67.8,39.2,29.74,ENE,68,0.0,1.1,35,0.00,,,0.00,meteobridge,2013-05-04 01:30:00,
2013-05-04 04:35:00,67.8,39.2,29.74,East,90,0.0,1.1,35,0.00,,,0.00,meteobridge,2013-05-04 01:35:00,
2013-05-04 04:40:00,67.8,39.2,29.74,ESE,112,0.0,0.0,35,0.00,,,0.00,meteobridge,2013-05-04 01:40:00,
2013-05-04 04:45:00,67.6,39.0,29.74,ESE,112,0.0,0.0,35,0.00,,,0.00,meteobridge,2013-05-04 01:45:00,
2013-05-04 04:50:00,67.6,39.0,29.74,ESE,112,0.0,0.0,35,0.00,,,0.00,meteobridge,2013-05-04 01:50:00,
2013-05-04 04:56:00,67.5,38.8,29.74,ESE,112,0.0,0.0,35,0.00,,,0.00,meteobridge,2013-05-04 01:56:00,
2013-05-04 05:01:00,67.6,39.7,29.74,SSE,158,2.0,2.0,36,0.00,,,0.00,meteobridge,2013-05-04 02:01:00,
2013-05-04 05:06:00,67.8,39.9,29.74,NNE,22,0.0,1.1,36,0.00,,,0.00,meteobridge,2013-05-04 02:06:00,
2013-05-04 05:11:00,68.0,39.4,29.74,East,90,1.1,1.1,35,0.00,,,0.00,meteobridge,2013-05-04 02:11:00,
2013-05-04 05:16:00,68.0,39.4,29.74,SE,135,0.0,0.0,35,0.00,,,0.00,meteobridge,2013-05-04 02:16:00,
2013-05-04 05:21:00,68.2,39.6,29.74,ESE,112,0.0,0.0,35,0.00,,,0.00,meteobridge,2013-05-04 02:21:00,
2013-05-04 05:26:00,68.0,39.4,29.77,ESE,112,0.0,0.0,35,0.00,,,0.00,meteobridge,2013-05-04 02:26:00,
2013-05-04 05:31:00,67.8,39.2,29.77,ESE,112,0.0,0.0,35,0.00,,,0.00,meteobridge,2013-05-04 02:31:00,
2013-05-04 05:36:00,67.6,39.0,29.77,East,90,0.0,0.0,35,0.00,,,0.00,meteobridge,2013-05-04 02:36:00,
2013-05-04 05:41:00,67.5,38.8,29.74,NNE,22,0.0,1.6,35,0.00,,,0.00,meteobridge,2013-05-04 02:41:00,
2013-05-04 05:46:00,67.3,38.7,29.74,North,0,0.0,0.0,35,0.00,,,0.00,meteobridge,2013-05-04 02:46:00,
2013-05-04 05:51:00,67.1,38.5,29.74,North,0,1.3,2.0,35,0.00,,,0.00,meteobridge,2013-05-04 02:51:00,
2013-05-04 05:56:00,67.1,38.5,29.74,North,0,0.0,0.0,35,0.00,,,0.00,meteobridge,2013-05-04 02:56:00,
2013-05-04 06:01:00,67.1,38.5,29.74,North,0,0.0,0.0,35,0.00,,,0.00,meteobridge,2013-05-04 03:01:00,
2013-05-04 06:06:00,66.9,38.5,29.74,North,0,0.0,0.0,35,0.00,,,0.00,meteobridge,2013-05-04 03:06:00,
2013-05-04 06:11:00,66.9,38.5,29.74,North,0,0.0,0.0,35,0.00,,,0.00,meteobridge,2013-05-04 03:11:00,
2013-05-04 06:16:00,66.9,38.5,29.74,North,0,0.0,0.0,35,0.00,,,0.00,meteobridge,2013-05-04 03:16:00,
2013-05-04 06:23:00,66.7,38.3,29.74,North,0,0.0,-999.0,35,0.00,,,0.00,meteobridge,2013-05-04 03:23:00,
2013-05-04 06:28:00,66.7,38.3,29.74,North,0,0.0,0.0,35,0.00,,,0.00,meteobridge,2013-05-04 03:28:00,
2013-05-04 06:34:00,66.7,38.3,29.74,North,0,0.0,0.0,35,0.00,,,0.00,meteobridge,2013-05-04 03:34:00,
2013-05-04 06:39:00,66.6,38.1,29.77,North,0,0.0,0.0,35,0.00,,,0.00,meteobridge,2013-05-04 03:39:00,
2013-05-04 06:44:00,66.7,38.3,29.77,North,0,0.0,0.0,35,0.00,,,0.00,meteobridge,2013-05-04 03:44:00,
2013-05-04 06:49:00,66.9,38.5,29.77,NNE,22,0.0,0.0,35,0.00,,,0.00,meteobridge,2013-05-04 03:49:00,
2013-05-04 06:54:00,67.1,38.5,29.77,NNE,22,0.0,0.0,35,0.00,,,0.00,meteobridge,2013-05-04 03:54:00,
2013-05-04 06:59:00,67.5,38.8,29.77,North,0,0.0,1.3,35,0.00,,,0.00,meteobridge,2013-05-04 03:59:00,
2013-05-04 07:01:00,67.6,39.0,29.77,North,0,0.0,0.0,35,0.00,,,0.00,meteobridge,2013-05-04 04:01:00,
2013-05-04 07:03:00,68.0,39.4,29.77,North,0,0.0,0.0,35,0.00,,,0.00,meteobridge,2013-05-04 04:03:00,
2013-05-04 07:06:00,68.5,39.0,29.77,North,0,1.3,1.6,34,0.00,,,0.00,meteobridge,2013-05-04 04:06:00,
2013-05-04 07:11:00,69.6,40.1,29.77,North,0,0.0,0.0,34,0.00,,,0.00,meteobridge,2013-05-04 04:11:00,
2013-05-04 07:16:00,70.9,40.5,29.77,North,0,0.0,0.0,33,0.00,,,0.00,meteobridge,2013-05-04 04:16:00,
2013-05-04 07:21:00,72.3,40.8,29.77,North,0,0.0,0.0,32,0.00,,,0.00,meteobridge,2013-05-04 04:21:00,
2013-05-04 07:26:00,73.0,41.5,29.77,North,0,0.0,0.0,32,0.00,,,0.00,meteobridge,2013-05-04 04:26:00,
2013-05-04 07:31:00,74.1,41.5,29.77,North,0,0.0,0.0,31,0.00,,,0.00,meteobridge,2013-05-04 04:31:00,
2013-05-04 07:37:00,75.4,40.1,29.77,North,0,0.0,0.0,28,0.00,,,0.00,meteobridge,2013-05-04 04:37:00,
2013-05-04 07:42:00,76.6,39.2,29.74,North,0,0.0,0.0,26,0.00,,,0.00,meteobridge,2013-05-04 04:42:00,
2013-05-04 07:47:00,77.5,39.0,29.74,ENE,68,0.0,0.0,25,0.00,,,0.00,meteobridge,2013-05-04 04:47:00,
2013-05-04 07:52:00,78.1,38.3,29.74,East,90,0.0,0.0,24,0.00,,,0.00,meteobridge,2013-05-04 04:52:00,
2013-05-04 07:57:00,78.1,38.3,29.77,NNE,22,1.1,1.3,24,0.00,,,0.00,meteobridge,2013-05-04 04:57:00,
2013-05-04 08:02:00,78.4,37.6,29.77,NNE,22,1.1,1.6,23,0.00,,,0.00,meteobridge,2013-05-04 05:02:00,
2013-05-04 08:07:00,78.3,36.3,29.77,NNE,22,1.6,2.0,22,0.00,,,0.00,meteobridge,2013-05-04 05:07:00,
2013-05-04 08:12:00,79.3,37.2,29.77,NNE,22,1.3,2.0,22,0.00,,,0.00,meteobridge,2013-05-04 05:12:00,
2013-05-04 08:17:00,79.9,36.5,29.77,NNE,22,1.6,2.0,21,0.00,,,0.00,meteobridge,2013-05-04 05:17:00,
2013-05-04 08:22:00,81.1,37.6,29.77,NNE,22,0.0,0.0,21,0.00,,,0.00,meteobridge,2013-05-04 05:22:00,
2013-05-04 08:27:00,81.5,36.7,29.77,North,0,1.6,2.5,20,0.00,,,0.00,meteobridge,2013-05-04 05:27:00,
2013-05-04 08:32:00,81.3,36.5,29.77,North,0,0.9,2.2,20,0.00,,,0.00,meteobridge,2013-05-04 05:32:00,
2013-05-04 08:37:00,81.1,36.3,29.77,NNE,22,2.0,2.0,20,0.00,,,0.00,meteobridge,2013-05-04 05:37:00,
2013-05-04 08:42:00,82.6,36.1,29.77,ESE,112,0.0,2.2,19,0.00,,,0.00,meteobridge,2013-05-04 05:42:00,
2013-05-04 08:48:00,82.6,36.1,29.77,North,0,2.9,2.9,19,0.00,,,0.00,meteobridge,2013-05-04 05:48:00,
2013-05-04 08:53:00,81.7,36.7,29.77,North,0,2.0,2.9,20,0.00,,,0.00,meteobridge,2013-05-04 05:53:00,
2013-05-04 08:58:00,82.8,36.3,29.77,North,0,1.6,1.6,19,0.00,,,0.00,meteobridge,2013-05-04 05:58:00,
2013-05-04 09:04:00,82.9,36.5,29.77,NNW,338,1.1,1.1,19,0.00,,,0.00,meteobridge,2013-05-04 06:04:00,
2013-05-04 09:09:00,84.4,36.3,29.77,SE,135,1.6,2.2,18,0.00,,,0.00,meteobridge,2013-05-04 06:09:00,
2013-05-04 09:14:00,84.9,36.7,29.77,WNW,292,0.0,2.0,18,0.00,,,0.00,meteobridge,2013-05-04 06:14:00,
2013-05-04 09:19:00,86.0,37.6,29.77,WNW,292,1.3,1.3,18,0.00,,,0.00,meteobridge,2013-05-04 06:19:00,
2013-05-04 09:24:00,86.2,34.7,29.77,WNW,292,2.5,2.5,16,0.00,,,0.00,meteobridge,2013-05-04 06:24:00,
2013-05-04 09:29:00,86.9,35.4,29.77,ESE,112,1.6,3.1,16,0.00,,,0.00,meteobridge,2013-05-04 06:29:00,
2013-05-04 09:34:00,86.4,34.9,29.77,North,0,2.7,2.7,16,0.00,,,0.00,meteobridge,2013-05-04 06:34:00,
2013-05-04 09:39:00,86.0,34.7,29.77,SE,135,2.0,2.7,16,0.00,,,0.00,meteobridge,2013-05-04 06:39:00,
2013-05-04 09:44:00,87.1,35.4,29.77,SW,225,1.3,2.5,16,0.00,,,0.00,meteobridge,2013-05-04 06:44:00,
2013-05-04 09:49:00,88.2,34.7,29.77,NNE,22,1.6,1.6,15,0.00,,,0.00,meteobridge,2013-05-04 06:49:00,
2013-05-04 09:54:00,88.5,35.1,29.77,WNW,292,1.3,2.7,15,0.00,,,0.00,meteobridge,2013-05-04 06:54:00,
2013-05-04 09:59:00,88.7,35.2,29.77,ESE,112,1.3,1.3,15,0.00,,,0.00,meteobridge,2013-05-04 06:59:00,
2013-05-04 10:04:00,89.2,35.6,29.77,East,90,0.9,2.9,15,0.00,,,0.00,meteobridge,2013-05-04 07:04:00,
2013-05-04 10:09:00,89.6,35.8,29.80,SSE,158,2.5,2.9,15,0.00,,,0.00,meteobridge,2013-05-04 07:09:00,
2013-05-04 10:14:00,89.8,30.4,29.80,SE,135,0.0,1.3,12,0.00,,,0.00,meteobridge,2013-05-04 07:14:00,
2013-05-04 10:19:00,90.7,31.1,29.80,NNE,22,0.9,1.6,12,0.00,,,0.00,meteobridge,2013-05-04 07:19:00,
2013-05-04 10:24:00,90.5,31.1,29.80,East,90,2.0,2.5,12,0.00,,,0.00,meteobridge,2013-05-04 07:24:00,
2013-05-04 10:29:00,90.9,31.3,29.80,ENE,68,1.6,2.0,12,0.00,,,0.00,meteobridge,2013-05-04 07:29:00,
2013-05-04 10:34:00,90.1,30.7,29.80,NNW,338,3.1,3.6,12,0.00,,,0.00,meteobridge,2013-05-04 07:34:00,
2013-05-04 10:39:00,90.7,31.1,29.80,NNW,338,2.0,2.5,12,0.00,,,0.00,meteobridge,2013-05-04 07:39:00,
2013-05-04 10:44:00,91.6,31.8,29.80,East,90,1.6,1.6,12,0.00,,,0.00,meteobridge,2013-05-04 07:44:00,
2013-05-04 10:49:00,91.0,31.5,29.80,North,0,1.6,2.9,12,0.00,,,0.00,meteobridge,2013-05-04 07:49:00,
2013-05-04 10:54:00,92.3,32.4,29.80,SE,135,2.7,3.1,12,0.00,,,0.00,meteobridge,2013-05-04 07:54:00,
2013-05-04 10:59:00,93.4,31.1,29.80,North,0,1.1,1.6,11,0.00,,,0.00,meteobridge,2013-05-04 07:59:00,
2013-05-04 11:04:00,91.8,32.0,29.80,SSE,158,1.3,3.6,12,0.00,,,0.00,meteobridge,2013-05-04 08:04:00,
2013-05-04 11:09:00,92.3,32.4,29.80,SSE,158,1.1,2.2,12,0.00,,,0.00,meteobridge,2013-05-04 08:09:00,
2013-05-04 11:14:00,93.2,30.9,29.80,NNW,338,2.9,2.9,11,0.00,,,0.00,meteobridge,2013-05-04 08:14:00,
2013-05-04 11:19:00,92.8,32.9,29.80,South,180,1.3,2.5,12,0.00,,,0.00,meteobridge,2013-05-04 08:19:00,
2013-05-04 11:24:00,93.2,30.9,29.80,SE,135,1.1,3.6,11,0.00,,,0.00,meteobridge,2013-05-04 08:24:00,
2013-05-04 11:29:00,92.8,32.9,29.80,SE,135,1.6,3.1,12,0.00,,,0.00,meteobridge,2013-05-04 08:29:00,
2013-05-04 11:35:00,92.8,32.9,29.80,NNE,22,2.0,2.0,12,0.00,,,0.00,meteobridge,2013-05-04 08:35:00,
2013-05-04 11:40:00,93.2,30.9,29.80,SSE,158,2.0,2.5,11,0.00,,,0.00,meteobridge,2013-05-04 08:40:00,
2013-05-04 11:45:00,93.0,32.9,29.80,SSW,202,2.0,2.5,12,0.00,,,0.00,meteobridge,2013-05-04 08:45:00,
2013-05-04 11:50:00,92.5,32.5,29.80,SSW,202,1.1,2.0,12,0.00,,,0.00,meteobridge,2013-05-04 08:50:00,
2013-05-04 11:55:00,93.0,32.9,29.80,East,90,1.6,3.6,12,0.00,,,0.00,meteobridge,2013-05-04 08:55:00,
2013-05-04 12:00:00,92.1,32.2,29.80,South,180,1.3,3.6,12,0.00,,,0.00,meteobridge,2013-05-04 09:00:00,
2013-05-04 12:05:00,92.3,32.4,29.80,East,90,1.3,3.4,12,0.00,,,0.00,meteobridge,2013-05-04 09:05:00,
2013-05-04 12:10:00,91.8,32.0,29.83,East,90,2.0,3.6,12,0.00,,,0.00,meteobridge,2013-05-04 09:10:00,
2013-05-04 12:15:00,91.9,32.2,29.83,WSW,248,2.9,6.3,12,0.00,,,0.00,meteobridge,2013-05-04 09:15:00,
2013-05-04 12:20:00,91.6,31.8,29.83,WSW,248,2.7,2.9,12,0.00,,,0.00,meteobridge,2013-05-04 09:20:00,
2013-05-04 12:25:00,91.6,31.8,29.80,SSW,202,3.1,3.4,12,0.00,,,0.00,meteobridge,2013-05-04 09:25:00,
2013-05-04 12:31:00,91.4,31.6,29.80,NW,315,4.0,4.0,12,0.00,,,0.00,meteobridge,2013-05-04 09:31:00,
2013-05-04 12:36:00,91.8,32.0,29.80,East,90,1.6,2.7,12,0.00,,,0.00,meteobridge,2013-05-04 09:36:00,
2013-05-04 12:41:00,90.5,31.1,29.83,SE,135,1.1,3.1,12,0.00,,,0.00,meteobridge,2013-05-04 09:41:00,
2013-05-04 12:46:00,91.8,32.0,29.83,WSW,248,3.1,3.1,12,0.00,,,0.00,meteobridge,2013-05-04 09:46:00,
2013-05-04 12:51:00,91.9,32.2,29.83,ESE,112,2.5,2.7,12,0.00,,,0.00,meteobridge,2013-05-04 09:51:00,
2013-05-04 12:56:00,91.9,32.2,29.83,West,270,0.9,2.0,12,0.00,,,0.00,meteobridge,2013-05-04 09:56:00,
2013-05-04 13:01:00,92.7,32.7,29.83,SE,135,2.7,3.1,12,0.00,,,0.00,meteobridge,2013-05-04 10:01:00,
2013-05-04 13:07:00,92.7,32.7,29.83,SSE,158,2.0,3.6,12,0.00,,,0.00,meteobridge,2013-05-04 10:07:00,
2013-05-04 13:12:00,91.9,32.2,29.80,SE,135,0.9,4.0,12,0.00,,,0.00,meteobridge,2013-05-04 10:12:00,
2013-05-04 13:17:00,92.7,32.7,29.80,ENE,68,1.3,2.9,12,0.00,,,0.00,meteobridge,2013-05-04 10:17:00,
2013-05-04 13:22:00,93.4,31.1,29.80,ESE,112,1.1,2.7,11,0.00,,,0.00,meteobridge,2013-05-04 10:22:00,
2013-05-04 13:27:00,93.9,31.5,29.80,NW,315,1.3,2.9,11,0.00,,,0.00,meteobridge,2013-05-04 10:27:00,
2013-05-04 13:32:00,92.8,32.9,29.80,NNW,338,3.4,5.4,12,0.00,,,0.00,meteobridge,2013-05-04 10:32:00,
2013-05-04 13:37:00,93.0,32.9,29.80,NNW,338,2.2,3.6,12,0.00,,,0.00,meteobridge,2013-05-04 10:37:00,
2013-05-04 13:42:00,92.5,32.5,29.80,SSE,158,1.3,3.6,12,0.00,,,0.00,meteobridge,2013-05-04 10:42:00,
2013-05-04 13:47:00,92.8,32.9,29.80,NW,315,1.3,2.0,12,0.00,,,0.00,meteobridge,2013-05-04 10:47:00,
2013-05-04 13:52:00,92.3,32.4,29.80,East,90,1.6,2.2,12,0.00,,,0.00,meteobridge,2013-05-04 10:52:00,
2013-05-04 13:57:00,92.8,32.9,29.80,SSE,158,1.6,2.5,12,0.00,,,0.00,meteobridge,2013-05-04 10:57:00,
2013-05-04 14:04:00,92.3,32.4,29.80,NW,315,2.0,-999.0,12,0.00,,,0.00,meteobridge,2013-05-04 11:04:00,
2013-05-04 14:09:00,91.0,31.5,29.80,NW,315,3.4,3.4,12,0.00,,,0.00,meteobridge,2013-05-04 11:09:00,
2013-05-04 14:14:00,91.4,31.6,29.80,ESE,112,3.1,4.3,12,0.00,,,0.00,meteobridge,2013-05-04 11:14:00,
2013-05-04 14:19:00,91.0,31.5,29.80,ESE,112,2.5,6.3,12,0.00,,,0.00,meteobridge,2013-05-04 11:19:00,
2013-05-04 14:24:00,91.2,31.6,29.80,SSE,158,2.9,2.9,12,0.00,,,0.00,meteobridge,2013-05-04 11:24:00,
2013-05-04 14:29:00,90.9,31.3,29.80,WNW,292,4.7,5.8,12,0.00,,,0.00,meteobridge,2013-05-04 11:29:00,
2013-05-04 14:34:00,91.4,31.6,29.80,SSW,202,4.3,4.3,12,0.00,,,0.00,meteobridge,2013-05-04 11:34:00,
2013-05-04 14:41:00,91.0,31.5,29.80,East,90,3.8,3.8,12,0.00,,,0.00,meteobridge,2013-05-04 11:41:00,
2013-05-04 14:46:00,90.7,31.1,29.80,WNW,292,2.2,3.6,12,0.00,,,0.00,meteobridge,2013-05-04 11:46:00,
2013-05-04 14:51:00,90.9,31.3,29.80,NNE,22,1.3,2.5,12,0.00,,,0.00,meteobridge,2013-05-04 11:51:00,
2013-05-04 14:56:00,90.5,31.1,29.80,NW,315,7.2,7.2,12,0.00,,,0.00,meteobridge,2013-05-04 11:56:00,
2013-05-04 15:01:00,90.5,31.1,29.80,East,90,2.5,3.4,12,0.00,,,0.00,meteobridge,2013-05-04 12:01:00,
2013-05-04 15:06:00,91.0,31.5,29.80,NNW,338,3.4,4.0,12,0.00,,,0.00,meteobridge,2013-05-04 12:06:00,
2013-05-04 15:11:00,91.0,31.5,29.80,ESE,112,3.1,3.6,12,0.00,,,0.00,meteobridge,2013-05-04 12:11:00,
2013-05-04 15:16:00,91.2,31.6,29.80,SSE,158,1.1,3.6,12,0.00,,,0.00,meteobridge,2013-05-04 12:16:00,
2013-05-04 15:21:00,90.9,31.3,29.80,NNW,338,2.7,2.7,12,0.00,,,0.00,meteobridge,2013-05-04 12:21:00,
2013-05-04 15:27:00,91.2,31.6,29.80,NW,315,2.5,4.0,12,0.00,,,0.00,meteobridge,2013-05-04 12:27:00,
2013-05-04 15:32:00,91.9,32.2,29.80,WNW,292,1.3,3.4,12,0.00,,,0.00,meteobridge,2013-05-04 12:32:00,
2013-05-04 15:37:00,92.1,32.2,29.80,NW,315,1.3,4.0,12,0.00,,,0.00,meteobridge,2013-05-04 12:37:00,
2013-05-04 15:42:00,91.9,32.2,29.77,West,270,2.2,3.1,12,0.00,,,0.00,meteobridge,2013-05-04 12:42:00,
2013-05-04 15:47:00,91.4,31.6,29.77,East,90,1.3,3.8,12,0.00,,,0.00,meteobridge,2013-05-04 12:47:00,
2013-05-04 15:52:00,91.0,31.5,29.77,WNW,292,2.2,4.5,12,0.00,,,0.00,meteobridge,2013-05-04 12:52:00,
2013-05-04 15:57:00,90.7,31.1,29.77,NNE,22,2.9,5.8,12,0.00,,,0.00,meteobridge,2013-05-04 12:57:00,
2013-05-04 16:02:00,90.9,31.3,29.77,North,0,2.9,2.9,12,0.00,,,0.00,meteobridge,2013-05-04 13:02:00,
2013-05-04 16:04:00,90.5,31.1,29.77,NNE,22,2.2,4.0,12,0.00,,,0.00,meteobridge,2013-05-04 13:04:00,
2013-05-04 16:09:00,90.7,31.1,29.77,SW,225,3.6,3.6,12,0.00,,,0.00,meteobridge,2013-05-04 13:09:00,
2013-05-04 16:15:00,90.7,31.1,29.77,East,90,1.6,2.5,12,0.00,,,0.00,meteobridge,2013-05-04 13:15:00,
2013-05-04 16:20:00,90.7,31.1,29.77,NE,45,3.4,3.4,12,0.00,,,0.00,meteobridge,2013-05-04 13:20:00,
2013-05-04 16:25:00,90.1,30.7,29.77,NNW,338,1.6,3.4,12,0.00,,,0.00,meteobridge,2013-05-04 13:25:00,
2013-05-04 16:30:00,90.1,30.7,29.77,North,0,4.3,4.3,12,0.00,,,0.00,meteobridge,2013-05-04 13:30:00,
2013-05-04 16:35:00,90.1,30.7,29.77,NNW,338,1.6,3.6,12,0.00,,,0.00,meteobridge,2013-05-04 13:35:00,
2013-05-04 16:40:00,90.1,30.7,29.77,NNW,338,1.6,3.4,12,0.00,,,0.00,meteobridge,2013-05-04 13:40:00,
2013-05-04 16:45:00,90.0,30.6,29.77,NNW,338,1.1,2.7,12,0.00,,,0.00,meteobridge,2013-05-04 13:45:00,
2013-05-04 16:50:00,90.0,30.6,29.77,SSE,158,2.7,2.7,12,0.00,,,0.00,meteobridge,2013-05-04 13:50:00,
2013-05-04 16:55:00,89.6,30.4,29.77,NNE,22,1.3,2.5,12,0.00,,,0.00,meteobridge,2013-05-04 13:55:00,
2013-05-04 17:00:00,89.2,32.0,29.77,SSW,202,3.4,3.4,13,0.00,,,0.00,meteobridge,2013-05-04 14:00:00,
2013-05-04 17:05:00,88.9,31.8,29.77,NW,315,2.9,3.8,13,0.00,,,0.00,meteobridge,2013-05-04 14:05:00,
2013-05-04 17:10:00,88.2,34.7,29.77,NNW,338,1.3,2.7,15,0.00,,,0.00,meteobridge,2013-05-04 14:10:00,
2013-05-04 17:15:00,88.7,35.2,29.77,NNW,338,2.5,2.5,15,0.00,,,0.00,meteobridge,2013-05-04 14:15:00,
2013-05-04 17:20:00,88.2,34.7,29.77,North,0,2.7,3.8,15,0.00,,,0.00,meteobridge,2013-05-04 14:20:00,
2013-05-04 17:25:00,87.6,36.0,29.77,North,0,2.0,2.9,16,0.00,,,0.00,meteobridge,2013-05-04 14:25:00,
2013-05-04 17:30:00,86.5,35.1,29.77,North,0,2.9,2.9,16,0.00,,,0.00,meteobridge,2013-05-04 14:30:00,
2013-05-04 17:36:00,86.2,34.7,29.77,NW,315,2.0,2.0,16,0.00,,,0.00,meteobridge,2013-05-04 14:36:00,
2013-05-04 17:41:00,86.2,34.7,29.77,ESE,112,1.3,2.5,16,0.00,,,0.00,meteobridge,2013-05-04 14:41:00,
2013-05-04 17:46:00,86.4,34.9,29.77,NE,45,2.2,2.2,16,0.00,,,0.00,meteobridge,2013-05-04 14:46:00,
2013-05-04 17:51:00,85.5,34.2,29.77,NW,315,1.6,2.5,16,0.00,,,0.00,meteobridge,2013-05-04 14:51:00,
2013-05-04 17:56:00,84.9,33.8,29.77,WNW,292,1.6,3.4,16,0.00,,,0.00,meteobridge,2013-05-04 14:56:00,
2013-05-04 18:01:00,84.2,33.3,29.77,NNW,338,2.5,3.4,16,0.00,,,0.00,meteobridge,2013-05-04 15:01:00,
2013-05-04 18:07:00,83.3,32.5,29.77,NNW,338,3.6,3.6,16,0.00,,,0.00,meteobridge,2013-05-04 15:07:00,
2013-05-04 18:12:00,83.1,32.4,29.77,NW,315,0.9,2.0,16,0.00,,,0.00,meteobridge,2013-05-04 15:12:00,
2013-05-04 18:17:00,82.9,32.2,29.77,NNW,338,2.7,2.7,16,0.00,,,0.00,meteobridge,2013-05-04 15:17:00,
2013-05-04 18:22:00,82.4,31.8,29.77,NNW,338,1.3,2.7,16,0.00,,,0.00,meteobridge,2013-05-04 15:22:00,
2013-05-04 18:27:00,81.9,32.9,29.77,East,90,0.9,2.5,17,0.00,,,0.00,meteobridge,2013-05-04 15:27:00,
2013-05-04 18:32:00,81.5,35.2,29.77,SE,135,2.0,2.2,19,0.00,,,0.00,meteobridge,2013-05-04 15:32:00,
2013-05-04 18:38:00,80.6,34.5,29.77,South,180,1.1,3.1,19,0.00,,,0.00,meteobridge,2013-05-04 15:38:00,
2013-05-04 18:43:00,80.2,35.6,29.77,East,90,1.3,2.5,20,0.00,,,0.00,meteobridge,2013-05-04 15:43:00,
2013-05-04 18:48:00,79.9,35.2,29.77,ENE,68,1.3,2.2,20,0.00,,,0.00,meteobridge,2013-05-04 15:48:00,
2013-05-04 18:53:00,79.5,35.1,29.77,NNE,22,1.3,2.2,20,0.00,,,0.00,meteobridge,2013-05-04 15:53:00,
2013-05-04 18:58:00,79.0,35.8,29.77,NNE,22,1.1,1.6,21,0.00,,,0.00,meteobridge,2013-05-04 15:58:00,
2013-05-04 19:03:00,78.8,35.6,29.77,West,270,1.3,1.6,21,0.00,,,0.00,meteobridge,2013-05-04 16:03:00,
2013-05-04 19:08:00,78.4,36.5,29.77,ENE,68,1.6,2.7,22,0.00,,,0.00,meteobridge,2013-05-04 16:08:00,
2013-05-04 19:13:00,78.1,36.1,29.77,North,0,2.5,2.9,22,0.00,,,0.00,meteobridge,2013-05-04 16:13:00,
2013-05-04 19:18:00,77.7,37.0,29.77,NNE,22,1.1,2.5,23,0.00,,,0.00,meteobridge,2013-05-04 16:18:00,
2013-05-04 19:23:00,77.4,36.7,29.77,NW,315,2.0,2.9,23,0.00,,,0.00,meteobridge,2013-05-04 16:23:00,
2013-05-04 19:28:00,77.0,37.4,29.77,NNW,338,2.2,2.9,24,0.00,,,0.00,meteobridge,2013-05-04 16:28:00,
2013-05-04 19:33:00,77.0,37.4,29.77,East,90,1.6,2.5,24,0.00,,,0.00,meteobridge,2013-05-04 16:33:00,
2013-05-04 19:38:00,76.6,38.3,29.77,NW,315,1.6,2.5,25,0.00,,,0.00,meteobridge,2013-05-04 16:38:00,
2013-05-04 19:43:00,76.5,38.1,29.77,NNE,22,1.1,2.0,25,0.00,,,0.00,meteobridge,2013-05-04 16:43:00,
2013-05-04 19:49:00,76.3,37.9,29.77,NNW,338,1.3,1.6,25,0.00,,,0.00,meteobridge,2013-05-04 16:49:00,
2013-05-04 19:54:00,76.3,37.9,29.80,WSW,248,0.9,3.1,25,0.00,,,0.00,meteobridge,2013-05-04 16:54:00,
2013-05-04 20:03:00,75.7,38.5,29.80,NNW,338,1.1,1.6,26,0.00,,,0.00,meteobridge,2013-05-04 17:03:00,
2013-05-04 20:09:00,75.6,38.3,29.77,NW,315,1.1,1.3,26,0.00,,,0.00,meteobridge,2013-05-04 17:09:00,
2013-05-04 20:15:00,75.4,39.2,29.77,NNW,338,0.9,2.7,27,0.00,,,0.00,meteobridge,2013-05-04 17:15:00,
2013-05-04 20:20:00,75.2,39.0,29.77,North,0,0.9,2.0,27,0.00,,,0.00,meteobridge,2013-05-04 17:20:00,
2013-05-04 20:25:00,75.0,38.8,29.80,North,0,1.3,1.3,27,0.00,,,0.00,meteobridge,2013-05-04 17:25:00,
2013-05-04 20:30:00,74.8,39.6,29.80,North,0,1.1,1.3,28,0.00,,,0.00,meteobridge,2013-05-04 17:30:00,
2013-05-04 20:35:00,74.8,41.4,29.80,North,0,1.1,1.1,30,0.00,,,0.00,meteobridge,2013-05-04 17:35:00,
2013-05-04 20:40:00,74.7,42.1,29.83,North,0,2.2,2.2,31,0.00,,,0.00,meteobridge,2013-05-04 17:40:00,
2013-05-04 20:46:00,74.5,41.9,29.83,SW,225,2.2,2.2,31,0.00,,,0.00,meteobridge,2013-05-04 17:46:00,
2013-05-04 20:51:00,74.1,41.5,29.83,NNW,338,1.3,1.3,31,0.00,,,0.00,meteobridge,2013-05-04 17:51:00,
2013-05-04 20:56:00,73.9,42.3,29.83,North,0,1.3,2.5,32,0.00,,,0.00,meteobridge,2013-05-04 17:56:00,
2013-05-04 21:01:00,73.8,42.1,29.83,SW,225,1.1,2.0,32,0.00,,,0.00,meteobridge,2013-05-04 18:01:00,
2013-05-04 21:06:00,73.6,41.9,29.83,SW,225,1.1,1.1,32,0.00,,,0.00,meteobridge,2013-05-04 18:06:00,
2013-05-04 21:11:00,73.6,41.9,29.83,South,180,0.0,0.0,32,0.00,,,0.00,meteobridge,2013-05-04 18:11:00,
2013-05-04 21:16:00,73.2,41.5,29.83,South,180,0.0,0.0,32,0.00,,,0.00,meteobridge,2013-05-04 18:16:00,
2013-05-04 21:21:00,73.2,41.5,29.83,ESE,112,0.0,1.1,32,0.00,,,0.00,meteobridge,2013-05-04 18:21:00,
2013-05-04 21:26:00,73.2,42.4,29.83,NNW,338,1.3,2.7,33,0.00,,,0.00,meteobridge,2013-05-04 18:26:00,
2013-05-04 21:32:00,73.2,42.4,29.83,North,0,2.5,2.5,33,0.00,,,0.00,meteobridge,2013-05-04 18:32:00,
2013-05-04 21:37:00,73.2,42.4,29.83,NNE,22,1.1,1.6,33,0.00,,,0.00,meteobridge,2013-05-04 18:37:00,
2013-05-04 21:42:00,73.0,42.3,29.80,NNE,22,1.1,1.1,33,0.00,,,0.00,meteobridge,2013-05-04 18:42:00,
2013-05-04 21:47:00,73.0,42.3,29.80,East,90,0.9,1.3,33,0.00,,,0.00,meteobridge,2013-05-04 18:47:00,
2013-05-04 21:52:00,73.0,42.3,29.80,NNE,22,2.0,2.0,33,0.00,,,0.00,meteobridge,2013-05-04 18:52:00,
2013-05-04 21:57:00,73.0,42.3,29.83,NNE,22,0.0,1.1,33,0.00,,,0.00,meteobridge,2013-05-04 18:57:00,
2013-05-04 22:02:00,73.2,42.4,29.83,NNE,22,2.0,2.0,33,0.00,,,0.00,meteobridge,2013-05-04 19:02:00,
2013-05-04 22:07:00,73.2,42.4,29.83,NNE,22,2.0,2.0,33,0.00,,,0.00,meteobridge,2013-05-04 19:07:00,
2013-05-04 22:12:00,73.0,42.3,29.83,NNE,22,1.3,1.6,33,0.00,,,0.00,meteobridge,2013-05-04 19:12:00,
2013-05-04 22:18:00,73.2,42.4,29.83,North,0,1.6,2.2,33,0.00,,,0.00,meteobridge,2013-05-04 19:18:00,
2013-05-04 22:23:00,73.2,41.5,29.83,North,0,2.5,2.9,32,0.00,,,0.00,meteobridge,2013-05-04 19:23:00,
2013-05-04 22:28:00,73.2,41.5,29.83,NNE,22,2.5,3.1,32,0.00,,,0.00,meteobridge,2013-05-04 19:28:00,
2013-05-04 22:33:00,73.2,40.8,29.83,NNE,22,1.3,1.6,31,0.00,,,0.00,meteobridge,2013-05-04 19:33:00,
2013-05-04 22:38:00,73.2,40.8,29.83,NNE,22,2.0,2.0,31,0.00,,,0.00,meteobridge,2013-05-04 19:38:00,
2013-05-04 22:43:00,73.4,41.0,29.83,NNE,22,0.0,0.0,31,0.00,,,0.00,meteobridge,2013-05-04 19:43:00,
2013-05-04 22:48:00,73.4,41.0,29.83,NNE,22,1.1,1.3,31,0.00,,,0.00,meteobridge,2013-05-04 19:48:00,
2013-05-04 22:53:00,73.4,40.1,29.83,NNE,22,0.0,0.0,30,0.00,,,0.00,meteobridge,2013-05-04 19:53:00,
2013-05-04 22:58:00,73.4,40.1,29.85,East,90,2.2,2.9,30,0.00,,,0.00,meteobridge,2013-05-04 19:58:00,
2013-05-04 23:03:00,73.2,40.8,29.85,NNE,22,1.1,2.0,31,0.00,,,0.00,meteobridge,2013-05-04 20:03:00,
2013-05-04 23:08:00,73.0,40.6,29.83,WSW,248,1.1,1.6,31,0.00,,,0.00,meteobridge,2013-05-04 20:08:00,
2013-05-04 23:13:00,73.0,40.6,29.83,NNW,338,1.1,2.2,31,0.00,,,0.00,meteobridge,2013-05-04 20:13:00,
2013-05-04 23:18:00,72.9,41.4,29.83,WNW,292,0.0,0.9,32,0.00,,,0.00,meteobridge,2013-05-04 20:18:00,
2013-05-04 23:23:00,72.7,41.2,29.83,North,0,0.0,1.6,32,0.00,,,0.00,meteobridge,2013-05-04 20:23:00,
2013-05-04 23:28:00,72.5,41.0,29.83,NNW,338,1.3,1.6,32,0.00,,,0.00,meteobridge,2013-05-04 20:28:00,
2013-05-04 23:33:00,72.5,41.0,29.83,North,0,0.9,1.6,32,0.00,,,0.00,meteobridge,2013-05-04 20:33:00,
2013-05-04 23:38:00,72.3,40.8,29.83,North,0,0.0,1.3,32,0.00,,,0.00,meteobridge,2013-05-04 20:38:00,
2013-05-04 23:43:00,72.1,40.6,29.83,North,0,0.0,0.0,32,0.00,,,0.00,meteobridge,2013-05-04 20:43:00,
2013-05-04 23:48:00,72.0,40.5,29.83,North,0,2.0,2.0,32,0.00,,,0.00,meteobridge,2013-05-04 20:48:00,
2013-05-04 23:53:00,72.0,40.5,29.83,NNE,22,2.5,2.5,32,0.00,,,0.00,meteobridge,2013-05-04 20:53:00,
2013-05-04 23:59:00,71.8,40.3,29.83,North,0,0.0,0.9,32,0.00,,,0.00,meteobridge,2013-05-04 20:59:00,